EW8518 Weather Reports


time (UTC)temp
C
wind
direction
speed
KPH
gust
KPH
rain 1hr
cm
rain 24hr
cm
rain mn
cm
humidity
%
barometer
mb
20260507221516 13 126 3.2 6.4 0.00 0.00 0.00 90 1011.0
20260507220030 13 126 1.6 8.0 0.00 0.00 0.00 90 1010.9
20260507214616 13 126 3.2 8.0 0.00 0.00 0.00 90 1011.1
20260507213057 13 126 3.2 8.0 0.00 0.00 0.00 90 1010.9
20260507211556 13 126 4.8 11.3 0.00 0.00 0.00 89 1010.9
20260507210038 13 126 1.6 6.4 0.00 0.00 0.00 89 1011.0
20260507204543 13 126 3.2 8.0 0.00 0.00 0.00 88 1010.9
20260507203020 13 126 1.6 6.4 0.00 0.00 0.00 87 1010.8
20260507201518 14 126 1.6 6.4 0.00 0.00 0.00 86 1010.8
20260507200109 15 126 1.6 4.8 0.00 0.00 0.00 85 1010.7
20260507194559 15 126 3.2 6.4 0.00 0.00 0.00 85 1010.6
20260507193042 16 126 1.6 6.4 0.00 0.00 0.00 83 1010.6
20260507191545 16 126 1.6 8.0 0.00 0.00 0.00 82 1010.3
20260507190023 17 126 1.6 8.0 0.00 0.00 0.00 80 1010.4
20260507184522 17 126 0.0 6.4 0.00 0.00 0.00 79 1010.3
20260507183005 17 126 0.0 4.8 0.00 0.00 0.00 78 1010.4
20260507181504 17 126 0.0 4.8 0.00 0.00 0.00 78 1010.5
20260507180046 17 126 1.6 8.0 0.00 0.00 0.00 77 1010.4
20260507174553 18 126 3.2 11.3 0.00 0.00 0.00 75 1010.4
20260507173033 18 126 8.0 14.5 0.00 0.00 0.00 74 1010.4
20260507171533 18 124 6.4 12.9 0.00 0.00 0.00 73 1010.3
20260507170010 19 124 8.0 16.1 0.00 0.00 0.00 70 1010.2
20260507164510 19 121 9.7 19.3 0.00 0.00 0.00 69 1010.1
20260507163055 19 119 11.3 22.5 0.00 0.00 0.00 69 1010.2
20260507161551 20 130 8.0 16.1 0.00 0.00 0.00 69 1010.2
20260507160035 19 134 11.3 19.3 0.00 0.00 0.00 70 1010.3
20260507154533 20 119 9.7 22.5 0.00 0.00 0.00 69 1010.2
20260507153019 19 134 12.9 22.5 0.00 0.00 0.00 70 1010.4
20260507151516 19 128 11.3 24.1 0.00 0.00 0.00 71 1010.3
20260507150058 20 123 12.9 24.1 0.00 0.00 0.00 71 1010.4
20260507144557 20 132 12.9 24.1 0.00 0.00 0.00 71 1010.3
20260507143042 20 131 14.5 22.5 0.00 0.00 0.00 68 1010.5
20260507141539 20 115 14.5 22.5 0.00 0.00 0.00 68 1010.4
20260507140022 20 115 6.4 22.5 0.00 0.00 0.00 69 1010.5
20260507134522 20 109 9.7 20.9 0.00 0.00 0.00 66 1010.7
20260507133004 20 119 14.5 24.1 0.00 0.00 0.00 66 1011.0
20260507131509 20 111 8.0 24.1 0.00 0.00 0.00 65 1011.0
20260507130103 21 132 12.9 20.9 0.00 0.00 0.00 65 1011.3
20260507124551 20 129 11.3 24.1 0.00 0.00 0.00 68 1011.2
20260507123028 20 112 16.1 27.4 0.00 0.00 0.00 66 1011.3
20260507121528 20 125 12.9 27.4 0.00 0.00 0.00 66 1011.3
20260507120023 20 121 12.9 25.7 0.00 0.00 0.00 65 1011.2
20260507114509 20 130 9.7 22.5 0.00 0.00 0.00 70 1011.2
20260507113052 20 126 12.9 24.1 0.00 0.00 0.00 66 1011.3
20260507111551 20 121 11.3 20.9 0.00 0.00 0.00 64 1011.5
20260507110033 20 132 14.5 27.4 0.00 0.00 0.00 62 1011.7
20260507104533 20 133 16.1 27.4 0.00 0.00 0.00 65 1011.6
20260507103015 20 121 12.9 25.7 0.00 0.00 0.00 65 1011.7
20260507101516 20 126 8.0 22.5 0.00 0.00 0.00 65 1011.7
20260507100057 20 128 12.9 24.1 0.00 0.00 0.00 63 1011.8
20260507094556 20 125 9.7 20.9 0.00 0.00 0.00 66 1011.7
20260507093040 21 36 3.2 9.7 0.00 0.00 0.00 65 1011.7
20260507091537 21 22 4.8 12.9 0.00 0.00 0.00 66 1011.6
20260507090022 21 19 6.4 14.5 0.00 0.00 0.00 63 1011.4
20260507084517 22 242 1.6 11.3 0.00 0.00 0.00 61 1011.3
20260507083058 21 235 1.6 12.9 0.00 0.00 0.00 48 1011.1
20260507081600 21 163 1.6 12.9 0.00 0.00 0.00 49 1011.2
20260507080034 20 165 4.8 11.3 0.00 0.00 0.00 52 1011.2
20260507074551 20 236 3.2 12.9 0.00 0.00 0.00 53 1011.3
20260507073012 20 186 1.6 11.3 0.00 0.00 0.00 58 1011.3
20260507071508 18 208 1.6 16.1 0.00 0.00 0.00 63 1011.2
20260507070049 18 204 8.0 14.5 0.00 0.00 0.00 67 1011.2
20260507064546 18 225 1.6 16.1 0.00 0.00 0.00 70 1011.1
20260507063034 18 240 3.2 14.5 0.00 0.00 0.00 71 1011.1
20260507061533 18 232 1.6 8.0 0.00 0.00 0.00 72 1011.0
20260507060029 17 232 1.6 9.7 0.00 0.00 0.00 74 1011.0
20260507054526 17 235 1.6 8.0 0.00 0.00 0.00 75 1010.8
20260507053021 16 236 0.0 3.2 0.00 0.00 0.00 79 1010.7
20260507051518 15 236 0.0 4.8 0.00 0.00 0.00 83 1010.5
20260507050025 14 235 0.0 4.8 0.00 0.00 0.00 84 1010.3
20260507044516 13 235 0.0 3.2 0.00 0.00 0.00 83 1010.3
20260507043056 13 235 0.0 1.6 0.00 0.00 0.00 83 1010.2
20260507041602 13 235 0.0 0.0 0.00 0.00 0.00 83 1010.2
20260507040044 13 235 0.0 3.2 0.00 0.00 0.00 82 1010.1
20260507034542 14 235 0.0 4.8 0.00 0.00 0.00 81 1010.2
20260507033042 14 235 3.2 8.0 0.00 0.00 0.00 82 1010.2
20260507031546 14 235 0.0 3.2 0.00 0.00 0.00 81 1010.2
20260507030047 15 235 0.0 3.2 0.00 0.00 0.00 80 1010.3
20260507024541 15 235 1.6 6.4 0.00 0.00 0.00 80 1010.1
20260507023033 15 236 0.0 11.3 0.00 0.00 0.00 80 1010.2
20260507021532 15 248 3.2 12.9 0.00 0.00 0.00 81 1010.1
20260507020010 15 259 6.4 20.9 0.00 0.00 0.00 81 1010.0
20260507014508 15 279 1.6 6.4 0.00 0.13 0.00 81 1010.0
20260507013049 15 274 1.6 17.7 0.00 0.13 0.00 81 1009.8
20260507011549 15 273 1.6 17.7 0.00 0.13 0.00 81 1009.8
20260507010033 15 251 1.6 12.9 0.00 0.13 0.00 81 1009.7
20260507004530 15 267 6.4 17.7 0.00 0.18 0.00 82 1009.7
20260507003013 15 260 4.8 17.7 0.00 0.18 0.00 81 1009.8
20260507001519 15 262 8.0 19.3 0.00 0.18 0.00 81 1009.8
20260507000054 15 238 4.8 17.7 0.00 0.18 0.00 81 1009.9
20260506234554 15 254 8.0 16.1 0.00 0.18 0.00 81 1009.9
20260506233041 15 262 4.8 24.1 0.00 0.18 0.00 80 1010.0
20260506231536 15 273 9.7 20.9 0.00 0.18 0.00 81 1009.9
20260506230018 15 259 4.8 16.1 0.00 0.18 0.00 82 1010.0
20260506224517 15 259 8.0 17.7 0.00 0.25 0.00 81 1010.0
20260506223117 15 261 4.8 19.3 0.00 0.25 0.00 81 1010.0